Погода в Чжунли

Тайвань     24°57′57″N   121°13′29″E
темп.,
°C
ветер,
м/с
пор.,
м/с
влажн.,
%
обл.,
%
осадки,
мм/ч
давл.,
гПа
погр.,
м
8 марта, пн
пн823:00+16ссв698798 0.2 1023540
02:00+16св698598 0.3 1021546
05:00+16св588477 0.0 1021566
08:00+17св6108087 0.0 1023663
11:00+19св8107169 0.0 1023812
14:00+19св8106981 0.0 1022791
17:00+18св7107382 0.0 1021756
20:00+17св697962 0.0 1023658
9 марта, вт
вт923:00+17св698064 0.0 1023641
02:00+16всв588352 0.0 1022489
05:00+16всв588319 0.0 1021462
08:00+18св587614 0.0 1023608
11:00+21св686444 0.0 1023720
14:00+22св685923 0.0 1021784
17:00+20св79661 0.0 1021787
20:00+18всв711725 0.0 1023617
10 марта, ср
ср1023:00+18всв711730 0.0 1024791
02:00+17всв711764 0.0 1023786
05:00+17всв8127719 0.0 1023797
08:00+18всв8126914 0.0 1024828
11:00+21всв9115618 0.0 1024993
14:00+22всв9115416 0.0 1023996
17:00+20всв8116025 0.0 1022917
20:00+19всв8126814 0.0 1023657
11 марта, чт
чт1123:00+18всв610710 0.0 1023515
02:00+18в58750 0.0 1022342
05:00+17в35780 0.0 1021196
08:00+20вюв12670 0.0 1022189
11:00+24ссз21500 0.0 1022829
14:00+25ссз43500 0.0 1019715
17:00+24с32550 0.0 1019510
20:00+23св23630 0.0 1020213
12 марта, пт
пт1223:00+21в36710 0.0 1021258
02:00+20всв35740 0.0 1020271
05:00+19в34760 0.0 1020231
08:00+21всв34696 0.0 1021338
11:00+25св44530 0.0 1021965
14:00+25св78542 0.0 10191023
17:00+23всв811642 0.0 1019859
20:00+20всв812758 0.0 1021709